| time (UTC) | temp C | wind direction | speed KPH | gust KPH | rain 1hr cm | rain 24hr cm | rain mn cm | humidity % | barometer mb |
| 20260504190034 | 16 | 38 | 0.0 | 6.4 | 0.00 | 0.00 | 0.00 | 23 | 1001.2 |
| 20260504184528 | 16 | 222 | 0.0 | 22.5 | 0.00 | 0.00 | 0.00 | 21 | 1001.6 |
| 20260504183009 | 16 | 232 | 1.6 | 12.9 | 0.00 | 0.00 | 0.00 | 22 | 1001.9 |
| 20260504181511 | 16 | 294 | 0.0 | 1.6 | 0.00 | 0.00 | 0.00 | 20 | 1002.0 |
| 20260504180127 | 16 | 342 | 0.0 | 0.0 | 0.00 | 0.00 | 0.00 | 18 | 1002.0 |
| 20260504174547 | 16 | 330 | 0.0 | 0.0 | 0.00 | 0.00 | 0.00 | 20 | 1001.9 |
| 20260504173030 | 16 | 302 | 0.0 | 0.0 | 0.00 | 0.00 | 0.00 | 22 | 1002.0 |
| 20260504171527 | 16 | 302 | 0.0 | 0.0 | 0.00 | 0.00 | 0.00 | 22 | 1002.1 |
| 20260504081504 | 6 | 180 | 0.0 | 0.0 | 0.00 | 0.00 | 0.00 | 38 | 1005.4 |
| 20260504050012 | 6 | 167 | 0.0 | 0.0 | 0.00 | 0.00 | 0.00 | 36 | 1006.5 |
| 20260504044600 | 6 | 167 | 0.0 | 8.0 | 0.00 | 0.00 | 0.00 | 36 | 1006.5 |
| 20260504043105 | 7 | 163 | 0.0 | 1.6 | 0.00 | 0.00 | 0.00 | 35 | 1006.4 |
| 20260504041559 | 7 | 163 | 0.0 | 1.6 | 0.00 | 0.00 | 0.00 | 34 | 1006.4 |
| 20260504040105 | 7 | 170 | 0.0 | 1.6 | 0.00 | 0.00 | 0.00 | 34 | 1006.3 |
| 20260504034616 | 7 | 172 | 0.0 | 0.0 | 0.00 | 0.00 | 0.00 | 33 | 1006.2 |
| 20260504033104 | 7 | 173 | 0.0 | 1.6 | 0.00 | 0.00 | 0.00 | 33 | 1006.1 |
| 20260504031603 | 7 | 193 | 0.0 | 1.6 | 0.00 | 0.00 | 0.00 | 33 | 1005.9 |
| 20260504030056 | 8 | 244 | 0.0 | 1.6 | 0.00 | 0.00 | 0.00 | 31 | 1005.7 |
| 20260504024539 | 9 | 266 | 0.0 | 1.6 | 0.00 | 0.00 | 0.00 | 30 | 1005.6 |
| 20260504023039 | 11 | 270 | 0.0 | 1.6 | 0.00 | 0.00 | 0.00 | 27 | 1005.4 |
| 20260504021521 | 13 | 273 | 0.0 | 0.0 | 0.00 | 0.00 | 0.00 | 23 | 1005.3 |
| 20260504020021 | 15 | 273 | 0.0 | 1.6 | 0.00 | 0.00 | 0.00 | 20 | 1005.2 |
| 20260504014503 | 16 | 273 | 0.0 | 0.0 | 0.00 | 0.00 | 0.00 | 18 | 1005.2 |
| 20260504013002 | 16 | 272 | 0.0 | 6.4 | 0.00 | 0.00 | 0.00 | 15 | 1005.3 |
| 20260504011548 | 17 | 285 | 0.0 | 1.6 | 0.00 | 0.00 | 0.00 | 16 | 1005.3 |
| 20260504010043 | 17 | 285 | 0.0 | 6.4 | 0.00 | 0.00 | 0.00 | 15 | 1005.4 |
| 20260504004525 | 17 | 280 | 0.0 | 3.2 | 0.00 | 0.00 | 0.00 | 15 | 1005.4 |
| 20260504003024 | 17 | 281 | 0.0 | 1.6 | 0.00 | 0.00 | 0.00 | 14 | 1005.5 |
| 20260504001507 | 17 | 273 | 0.0 | 3.2 | 0.00 | 0.00 | 0.00 | 14 | 1005.5 |
| 20260504000005 | 17 | 276 | 0.0 | 24.1 | 0.00 | 0.00 | 0.00 | 15 | 1005.7 |
| 20260503234548 | 17 | 261 | 3.2 | 25.7 | 0.00 | 0.00 | 0.00 | 14 | 1005.7 |
| 20260503233048 | 18 | 271 | 0.0 | 16.1 | 0.00 | 0.00 | 0.00 | 14 | 1005.8 |
| 20260503231529 | 18 | 283 | 0.0 | 19.3 | 0.00 | 0.00 | 0.00 | 13 | 1005.7 |
| 20260503230028 | 18 | 248 | 3.2 | 24.1 | 0.00 | 0.00 | 0.00 | 13 | 1005.7 |
| 20260503224509 | 18 | 247 | 0.0 | 17.7 | 0.00 | 0.00 | 0.00 | 12 | 1005.8 |
| 20260503223008 | 18 | 275 | 0.0 | 17.7 | 0.00 | 0.00 | 0.00 | 12 | 1005.9 |
| 20260503221548 | 19 | 245 | 9.7 | 25.7 | 0.00 | 0.00 | 0.00 | 12 | 1006.1 |
| 20260503220047 | 18 | 279 | 0.0 | 19.3 | 0.00 | 0.00 | 0.00 | 13 | 1006.3 |
| 20260503214540 | 18 | 259 | 0.0 | 24.1 | 0.00 | 0.00 | 0.00 | 13 | 1006.6 |
| 20260503213032 | 18 | 204 | 0.0 | 0.0 | 0.00 | 0.00 | 0.00 | 12 | 1006.9 |
| 20260503211530 | 18 | 72 | 0.0 | 0.0 | 0.00 | 0.00 | 0.00 | 13 | 1007.0 |
| 20260503210029 | 18 | 66 | 0.0 | 0.0 | 0.00 | 0.00 | 0.00 | 13 | 1007.5 |
| 20260503204530 | 18 | 59 | 0.0 | 1.6 | 0.00 | 0.00 | 0.00 | 13 | 1007.6 |
| 20260503203024 | 18 | 47 | 0.0 | 0.0 | 0.00 | 0.00 | 0.00 | 12 | 1008.0 |
| 20260503201521 | 20 | 321 | 0.0 | 3.2 | 0.00 | 0.00 | 0.00 | 12 | 1008.2 |
| 20260503200018 | 18 | 294 | 0.0 | 14.5 | 0.00 | 0.00 | 0.00 | 13 | 1008.4 |
| 20260503194604 | 18 | 279 | 0.0 | 6.4 | 0.00 | 0.00 | 0.00 | 12 | 1008.6 |
| 20260503193104 | 18 | 270 | 0.0 | 17.7 | 0.00 | 0.00 | 0.00 | 12 | 1009.0 |
| 20260503191542 | 18 | 216 | 16.1 | 32.2 | 0.00 | 0.00 | 0.00 | 13 | 1009.3 |